Probability
0 0 0 0 0 0 0 0 0 0 0 0 0 10 23 23 32 48 55 65 65 74 71 77 77 84 84 90 94 90 90 90 97 94 94 90 90 94 94 90 90 90 87 87
3 0 0 0 0 0 0 0 0 0 0 0 0 3 13 23 29 39 55 65 68 71 81 84 84 87 87 94 94 90 90 90 94 97 97 100 97 97 90 94 90 87 87 90
0 0 0 0 0 0 0 0 0 0 0 0 3 6 13 19 23 29 45 55 71 77 90 100 97 94 90 94 94 94 94 94 100 100 100 97 94 94 94 94 90 90 87 87
0 0 0 0 0 0 0 0 0 0 0 0 0 3 13 10 16 35 42 48 68 74 84 100 97 97 97 94 97 97 100 100 100 100 97 94 94 87 90 94 87 90 84 77
0 0 0 0 0 0 0 0 0 0 0 0 0 0 6 6 13 19 32 32 52 74 84 97 94 97 94 94 97 97 100 100 100 100 100 97 94 90 90 94 90 90 81 77
0 0 0 0 0 0 0 0 0 0 0 0 0 0 0 3 19 23 23 29 39 61 81 87 94 97 94 90 90 94 97 100 100 100 100 97 90 90 84 87 84 84 84 87
0 0 0 0 0 0 0 0 0 0 0 0 0 0 0 0 3 6 23 29 48 61 65 77 87 94 97 94 97 97 97 97 97 100 97 94 94 97 84 84 87 87 81 77
0 0 0 0 0 0 0 0 0 0 0 0 0 0 0 0 0 6 23 26 39 48 68 71 90 90 97 94 97 97 97 97 97 94 97 100 97 90 87 87 84 77 77 81
0 0 0 0 0 0 0 0 0 0 0 0 0 0 3 6 6 10 23 32 32 45 61 71 84 94 97 97 97 97 97 97 100 97 97 97 97 90 87 81 77 81 81 81
0 0 0 0 0 0 0 0 0 3 0 0 0 0 6 16 19 23 29 35 42 45 55 74 84 90 94 97 97 94 94 94 94 94 94 87 90 90 84 77 77 77 84 84
0 0 0 0 0 0 0 0 0 0 0 0 0 0 10 19 29 26 26 39 42 39 48 65 81 87 87 84 94 87 90 90 90 90 90 90 87 84 84 74 77 74 77 84
0 0 0 0 0 0 0 0 0 0 3 6 0 6 6 19 23 26 32 35 52 45 48 68 87 94 90 81 81 87 87 87 87 90 90 90 94 90 84 81 81 81 81 74
0 0 0 0 0 0 0 0 0 0 3 0 0 3 13 19 23 19 35 48 58 55 65 71 87 84 84 84 84 84 84 84 87 90 90 90 90 90 90 77 77 81 74 71
0 0 0 0 0 0 0 0 0 0 0 0 0 6 6 23 26 39 39 52 58 68 74 84 90 87 84 84 87 81 81 81 81 81 81 81 84 87 84 81 77 74 68 68
0 0 0 0 0 0 0 0 0 0 0 0 3 10 16 19 32 29 45 55 65 65 77 87 84 87 90 84 84 81 81 81 81 81 77 74 74 81 77 77 71 74 68 65
0 0 0 0 0 0 0 0 0 0 0 3 6 6 16 23 32 39 39 45 58 65 58 74 77 84 81 81 81 84 81 81 81 77 74 74 71 71 71 68 71 74 68 61
0 6 0 0 0 0 0 0 3 3 0 10 10 13 19 29 39 52 52 48 58 61 61 71 77 74 77 77 77 81 87 87 84 77 74 77 74 71 61 61 68 71 68 61
6 3 6 0 0 0 0 3 3 6 3 6 16 19 23 35 45 45 52 55 55 52 61 68 65 71 71 71 74 74 74 77 74 71 68 71 71 61 68 65 61 65 61 61
0 13 6 0 0 0 0 0 6 6 13 10 16 16 23 26 35 39 48 55 58 52 58 61 65 68 68 68 74 71 68 68 68 61 58 61 58 61 68 68 61 58 52 52
0 10 6 3 0 0 0 0 3 10 16 6 16 16 26 29 35 45 52 55 58 65 65 68 65 65 68 68 68 68 68 65 58 55 52 52 58 58 61 68 68 55 52 48
0 6 6 0 3 3 3 3 0 0 19 10 26 23 29 45 52 55 42 55 61 61 65 61 65 65 61 65 65 68 61 58 58 48 48 52 55 58 55 52 55 55 48 45
0 3 3 0 0 6 16 13 23 48 58 23 29 35 29 39 42 42 45 55 58 58 61 61 65 65 58 58 58 58 52 52 45 48 48 52 55 45 35 52 45 45 45 42
0 6 10 13 6 29 26 32 45 39 32 32 26 29 26 29 35 35 35 48 52 55 58 61 61 55 55 48 48 55 48 45 48 52 52 58 52 48 48 45 42 42 42 39
3 3 10 19 6 10 13 23 29 23 29 32 26 26 32 35 29 35 42 52 52 52 42 42 42 45 48 48 48 48 48 45 45 48 48 45 42 39 42 39 35 32 29 32
3 6 6 13 16 10 19 23 23 32 23 26 26 26 32 26 32 35 45 52 45 45 45 45 45 45 45 45 45 42 42 42 42 45 42 39 35 32 32 23 16 19 16 13
3 6 6 10 23 19 26 26 32 32 29 29 26 23 29 39 35 39 42 45 45 45 45 45 45 45 45 45 42 42 42 39 39 35 39 35 35 29 26 16 10 0 0 0
Height
5873 5878 5881 5885 5889 5892 5895 5899 5901 5904 5904 5904 5905 5905 5906 5906 5906 5906 5905 5905 5905 5906 5906 5906 5906 5906 5906 5906 5906 5906 5906 5905 5905 5905 5905 5904 5904 5904 5903 5903 5903 5902 5902 5901
5871 5875 5879 5882 5886 5889 5891 5895 5899 5903 5903 5903 5904 5905 5904 5904 5906 5905 5905 5905 5904 5904 5905 5906 5905 5905 5905 5905 5905 5905 5904 5904 5904 5904 5903 5903 5903 5902 5902 5902 5901 5901 5900 5900
5867 5873 5875 5878 5882 5886 5889 5893 5897 5900 5901 5901 5903 5903 5904 5903 5905 5905 5904 5904 5904 5904 5905 5905 5904 5904 5904 5904 5904 5904 5903 5903 5902 5902 5902 5901 5901 5901 5900 5900 5900 5899 5899 5899
5863 5867 5871 5875 5879 5883 5887 5890 5893 5896 5898 5900 5901 5902 5902 5901 5902 5902 5903 5903 5902 5903 5903 5903 5903 5903 5903 5903 5903 5902 5902 5901 5901 5901 5900 5900 5899 5899 5899 5898 5898 5898 5898 5897
5859 5863 5867 5871 5876 5879 5884 5887 5890 5892 5894 5897 5898 5900 5901 5899 5898 5899 5900 5900 5900 5901 5901 5901 5902 5901 5901 5901 5901 5900 5900 5900 5900 5899 5898 5898 5898 5897 5897 5896 5896 5897 5896 5896
5856 5859 5863 5867 5871 5875 5879 5883 5886 5888 5891 5893 5895 5897 5897 5897 5895 5896 5897 5898 5896 5897 5899 5899 5900 5899 5899 5899 5899 5899 5898 5898 5898 5897 5896 5896 5895 5895 5894 5894 5894 5894 5894 5894
5851 5855 5858 5863 5867 5871 5875 5880 5883 5885 5887 5890 5893 5894 5894 5893 5892 5893 5894 5895 5895 5896 5896 5897 5897 5898 5897 5897 5897 5897 5896 5896 5895 5895 5894 5894 5893 5892 5892 5892 5892 5892 5892 5892
5848 5852 5855 5858 5863 5867 5871 5876 5881 5884 5886 5888 5889 5890 5891 5891 5890 5891 5892 5893 5893 5894 5894 5895 5895 5895 5895 5894 5894 5894 5894 5893 5893 5892 5892 5891 5890 5890 5890 5889 5890 5890 5890 5889
5845 5849 5852 5855 5859 5863 5867 5871 5877 5881 5883 5885 5885 5885 5886 5887 5888 5889 5890 5891 5891 5891 5892 5892 5892 5892 5892 5892 5891 5891 5891 5891 5890 5890 5889 5889 5888 5888 5887 5887 5887 5887 5887 5887
5841 5845 5848 5851 5854 5858 5864 5868 5872 5875 5878 5880 5882 5882 5881 5882 5884 5886 5887 5887 5888 5889 5889 5890 5889 5890 5890 5889 5889 5889 5889 5888 5888 5887 5887 5887 5886 5886 5885 5885 5884 5884 5884 5884
5836 5841 5845 5847 5849 5854 5859 5863 5867 5870 5874 5876 5878 5880 5877 5877 5880 5882 5883 5884 5885 5886 5886 5886 5887 5887 5887 5886 5886 5886 5886 5885 5885 5885 5885 5885 5884 5884 5883 5883 5882 5882 5881 5881
5831 5836 5840 5843 5847 5851 5855 5859 5863 5866 5869 5871 5872 5874 5870 5871 5876 5878 5880 5881 5882 5883 5883 5883 5884 5884 5884 5884 5884 5883 5883 5883 5883 5883 5883 5883 5882 5882 5881 5881 5880 5879 5878 5878
5826 5831 5836 5840 5844 5846 5849 5853 5857 5861 5865 5867 5869 5871 5867 5869 5872 5873 5875 5876 5878 5879 5880 5880 5880 5880 5881 5881 5880 5879 5880 5880 5880 5880 5880 5880 5880 5879 5879 5878 5877 5876 5875 5875
5821 5825 5831 5836 5839 5841 5845 5849 5852 5856 5859 5863 5865 5866 5864 5865 5867 5869 5870 5872 5874 5874 5876 5877 5878 5878 5878 5877 5876 5876 5877 5878 5878 5878 5878 5878 5877 5877 5876 5875 5874 5873 5872 5872
5815 5820 5825 5829 5833 5837 5839 5844 5847 5850 5854 5858 5860 5861 5861 5861 5863 5865 5866 5868 5869 5870 5872 5873 5874 5875 5875 5874 5874 5874 5875 5875 5876 5875 5875 5875 5874 5873 5872 5871 5870 5870 5870 5869
5809 5814 5819 5824 5828 5832 5835 5839 5842 5846 5850 5852 5854 5857 5857 5857 5858 5860 5862 5864 5865 5867 5868 5869 5870 5871 5872 5872 5872 5872 5873 5873 5873 5873 5872 5872 5871 5870 5869 5868 5867 5866 5866 5866
5803 5808 5813 5818 5823 5826 5830 5834 5837 5841 5844 5847 5849 5852 5853 5853 5854 5856 5858 5859 5861 5862 5863 5864 5866 5867 5868 5869 5869 5869 5870 5870 5870 5869 5869 5869 5868 5867 5866 5864 5864 5863 5862 5862
5798 5803 5808 5813 5819 5821 5827 5829 5832 5835 5838 5841 5843 5846 5848 5849 5850 5851 5853 5855 5857 5858 5859 5859 5860 5862 5864 5865 5865 5866 5866 5866 5866 5866 5866 5865 5865 5864 5863 5861 5860 5860 5859 5858
5793 5799 5804 5809 5812 5817 5821 5824 5827 5830 5833 5835 5838 5840 5842 5844 5845 5847 5848 5849 5852 5854 5856 5857 5857 5858 5860 5861 5861 5861 5862 5862 5862 5862 5862 5862 5861 5860 5859 5858 5857 5856 5855 5854
5789 5793 5799 5803 5807 5811 5815 5818 5820 5824 5826 5830 5832 5834 5837 5839 5840 5842 5843 5844 5846 5849 5851 5852 5853 5855 5856 5856 5857 5857 5857 5857 5857 5857 5858 5857 5856 5855 5854 5854 5852 5852 5851 5850
5783 5787 5792 5796 5800 5804 5807 5810 5814 5819 5821 5824 5826 5828 5831 5832 5834 5837 5838 5841 5842 5844 5846 5848 5849 5850 5851 5852 5852 5853 5853 5853 5853 5853 5853 5852 5852 5851 5850 5849 5848 5847 5846 5846
5777 5782 5786 5790 5795 5801 5801 5804 5807 5810 5814 5817 5820 5822 5824 5826 5828 5831 5833 5836 5837 5839 5841 5843 5844 5845 5846 5847 5848 5848 5848 5848 5848 5848 5848 5847 5846 5846 5845 5844 5843 5843 5842 5841
5772 5777 5780 5785 5790 5792 5795 5798 5801 5804 5807 5811 5814 5816 5819 5821 5823 5825 5828 5830 5832 5834 5836 5837 5839 5840 5841 5842 5843 5843 5844 5844 5843 5843 5842 5842 5841 5841 5840 5839 5838 5838 5837 5836
5766 5769 5774 5778 5781 5784 5788 5791 5794 5797 5801 5805 5807 5810 5813 5816 5818 5820 5822 5825 5827 5829 5830 5832 5834 5835 5836 5837 5838 5838 5839 5839 5839 5838 5837 5837 5836 5836 5835 5834 5833 5833 5832 5830
5757 5762 5766 5771 5774 5778 5781 5784 5788 5792 5795 5798 5801 5804 5807 5810 5812 5814 5817 5819 5821 5823 5824 5826 5828 5829 5830 5832 5832 5833 5834 5834 5833 5833 5832 5832 5831 5831 5830 5829 5828 5827 5826 5825
5750 5755 5759 5764 5767 5771 5775 5778 5782 5786 5789 5792 5795 5797 5800 5803 5805 5808 5811 5813 5815 5817 5819 5821 5822 5824 5825 5826 5827 5828 5828 5828 5828 5828 5827 5827 5826 5825 5824 5823 5822 5821 5820 5819
Wind_Speed
22 21 20 18 17 15 15 13 12 11 13 13 11 11 9 9 9 9 8 7 7 6 6 6 6 6 6 6 7 7 8 8 8 8 9 9 9 10 10 9 10 9 10 10
23 22 20 20 19 19 17 15 14 13 15 14 12 11 12 11 10 11 10 9 8 8 7 6 7 7 7 7 8 8 9 9 9 9 10 10 10 11 11 10 10 9 9 9
22 21 22 22 21 21 18 17 16 15 15 15 13 12 13 12 11 12 12 11 11 9 9 8 8 8 8 8 8 9 9 9 9 10 10 10 10 10 10 10 10 9 9 9
23 23 23 23 22 21 19 18 18 17 17 16 14 15 15 15 14 14 14 13 12 11 10 9 9 9 9 9 9 9 9 9 10 10 10 10 11 11 10 10 10 9 9 9
24 25 24 24 23 22 21 20 20 18 18 17 14 15 15 15 15 14 14 14 13 12 12 11 10 10 10 10 10 10 10 10 11 11 11 11 11 11 11 10 10 9 10 10
25 25 25 24 24 24 22 21 20 19 18 19 17 16 16 17 17 15 15 16 16 12 12 12 11 11 12 12 11 11 11 11 11 11 11 12 12 12 11 11 11 10 10 10
26 25 26 25 25 25 24 22 19 18 18 18 16 17 19 17 16 15 16 15 15 12 13 13 12 12 13 13 13 12 12 12 12 12 12 12 13 12 11 11 11 11 11 11
26 25 25 26 26 25 25 23 20 18 16 16 16 18 19 18 16 14 14 15 15 14 14 14 13 12 14 14 13 12 12 12 13 13 13 13 13 12 11 11 11 12 12 11
23 23 24 25 25 25 25 24 20 17 15 15 17 17 17 19 18 16 16 16 16 14 14 15 14 12 13 14 14 13 13 13 12 13 12 13 12 11 11 11 11 12 12 11
22 20 22 24 26 26 24 23 24 24 21 18 16 17 17 18 18 18 17 17 16 15 15 15 14 13 13 14 14 14 14 13 13 13 12 12 11 11 11 11 11 12 12 12
23 21 22 25 26 25 25 25 25 24 22 19 17 19 19 20 17 17 17 16 16 16 15 15 15 14 14 13 13 14 13 12 12 12 12 12 11 11 12 12 12 12 12 12
26 23 21 23 23 23 24 25 26 25 24 23 20 18 16 16 15 17 18 18 17 16 15 15 15 14 14 13 14 14 13 12 12 12 12 12 12 12 13 13 13 13 13 12
28 26 23 22 23 24 25 26 27 26 25 23 20 19 18 16 16 17 18 19 18 17 16 16 14 14 14 13 14 14 13 13 13 12 12 13 13 13 14 15 14 14 13 13
30 29 26 21 21 23 25 26 27 27 27 24 22 19 20 16 17 18 18 19 18 18 17 17 15 15 14 14 14 13 14 14 14 13 13 14 14 15 15 15 15 14 13 13
31 31 30 25 22 22 24 25 26 28 27 25 21 21 21 17 17 19 20 20 20 19 19 18 17 16 15 15 14 13 13 13 14 14 14 14 14 15 15 15 15 15 15 14
32 32 31 29 25 21 23 23 24 26 25 25 22 20 22 22 20 20 21 21 21 20 19 18 16 16 16 16 15 15 14 14 14 14 15 15 15 15 15 16 16 16 16 15
32 31 31 29 26 23 25 24 24 25 25 25 24 22 22 21 22 22 21 20 21 21 21 19 17 16 16 16 16 16 16 16 16 15 15 15 15 15 16 16 17 17 16 16
30 30 29 26 26 25 23 23 25 26 26 27 27 26 26 25 26 25 23 22 22 21 21 19 18 18 17 17 17 17 18 17 17 17 16 16 16 16 17 18 18 17 17 17
29 29 28 26 25 25 23 23 23 25 26 27 28 28 27 27 26 25 24 23 23 23 22 21 21 20 19 18 18 18 18 19 18 18 18 17 17 18 19 19 19 18 18 18
29 29 29 28 26 24 24 24 25 25 27 27 28 28 28 28 27 27 26 23 23 24 23 22 21 21 20 20 20 19 19 19 19 18 18 19 19 20 20 20 20 19 19 19
30 30 30 30 29 26 25 26 26 26 26 26 27 28 29 28 27 27 25 24 25 24 24 23 22 22 21 20 20 20 20 20 20 20 20 20 21 21 21 21 20 20 20 20
29 30 30 30 29 28 27 27 28 27 27 27 27 29 29 28 28 28 28 26 26 25 25 24 23 22 21 21 21 20 20 21 21 21 21 21 22 22 22 21 21 21 20 20
29 30 30 31 30 30 29 29 28 26 27 28 28 29 29 28 28 28 28 27 26 26 25 25 24 23 23 23 22 21 21 21 21 21 21 21 21 21 21 21 21 21 21 21
30 32 32 32 32 32 31 30 29 28 28 29 28 29 29 28 28 27 28 28 27 26 26 25 24 24 24 23 23 21 21 21 22 21 21 21 20 21 21 21 22 22 22 22
33 32 33 34 34 34 33 31 31 29 28 29 29 30 29 28 28 28 28 28 27 27 27 26 25 25 24 23 23 22 21 22 22 21 22 21 21 22 22 23 22 22 22 21
35 35 36 36 35 33 32 30 30 30 30 30 30 30 29 28 29 29 28 28 28 28 27 27 26 25 25 25 24 24 23 22 22 22 22 23 23 24 24 23 22 22 21 22
Wind_Direction
218 218 215 213 210 208 206 213 222 224 239 242 244 253 248 256 277 281 281 288 290 290 303 306 302 301 304 308 310 311 308 303 302 304 305 299 297 298 298 294 295 299 301 299
218 219 215 212 212 215 209 208 215 219 235 242 242 244 258 258 267 278 277 282 291 291 290 299 302 304 305 307 308 309 308 305 306 306 307 303 301 302 301 298 298 303 303 306
219 217 216 214 214 217 215 213 212 221 236 242 243 246 253 262 263 268 272 275 280 285 288 293 296 302 307 310 308 306 309 312 311 308 307 307 305 303 304 302 299 302 302 304
218 217 218 216 214 215 217 215 213 219 230 238 239 248 251 253 258 265 265 267 274 281 285 289 294 301 304 304 305 306 309 308 308 310 307 306 304 301 295 296 298 299 298 298
218 218 219 219 216 216 216 217 220 221 228 234 238 244 253 256 258 263 267 263 266 273 283 285 287 293 298 301 301 301 303 304 306 305 302 302 301 300 295 292 292 295 298 298
218 220 220 220 219 217 214 218 222 225 228 234 232 242 253 246 252 255 264 267 265 267 279 284 283 285 291 295 296 295 296 298 302 303 300 297 297 295 292 291 286 286 293 295
218 222 222 221 220 218 216 216 222 228 231 238 236 238 249 251 249 255 264 268 270 269 276 282 282 281 287 290 291 293 293 293 296 298 297 296 296 298 293 286 286 286 288 293
222 224 225 224 223 221 220 218 217 224 235 241 237 237 244 248 255 255 259 263 268 271 276 279 279 277 281 285 288 291 293 292 294 297 298 299 300 299 295 291 286 284 286 289
222 225 226 227 224 221 221 218 214 217 228 243 239 234 243 247 252 253 255 260 263 265 270 277 280 280 279 280 285 288 292 291 292 295 298 301 299 295 292 291 290 286 285 285
212 221 227 227 225 222 221 218 210 214 224 231 238 241 235 247 254 256 254 256 259 264 265 271 276 280 279 278 282 286 287 285 286 290 295 300 298 295 292 291 291 288 284 286
206 215 224 227 226 223 218 215 215 219 223 229 237 239 236 237 247 255 255 256 257 261 263 268 272 278 282 282 285 285 284 284 286 285 290 296 298 296 295 294 294 293 291 289
206 211 219 228 227 223 223 218 218 219 223 225 239 250 243 237 246 248 250 252 252 256 260 267 269 272 277 281 284 280 279 282 282 283 286 291 295 297 297 297 297 297 292 288
206 208 210 222 224 221 220 219 217 221 224 225 236 254 253 246 246 248 248 252 253 255 256 262 266 272 277 278 280 275 274 280 282 282 285 288 293 295 297 297 296 296 290 287
210 212 206 213 225 226 222 220 220 220 223 225 231 244 253 251 246 250 248 250 254 253 256 261 266 272 274 277 279 277 274 277 281 283 285 288 292 294 297 297 296 295 291 287
212 213 209 205 213 224 226 223 222 223 223 226 231 238 251 252 253 253 252 253 252 253 257 259 261 266 270 273 277 280 282 282 282 283 286 291 294 296 296 295 295 295 293 292
215 213 211 209 207 216 224 225 224 225 225 227 228 234 240 247 253 255 254 251 252 255 258 259 259 263 266 269 272 274 280 284 286 286 287 289 291 294 297 296 295 295 293 291
216 215 214 212 209 217 221 221 223 225 226 227 230 231 233 241 250 255 253 250 253 255 256 255 256 260 265 268 270 272 277 281 284 286 289 291 294 293 296 294 294 295 294 292
216 215 215 212 212 220 223 222 223 224 225 226 229 233 234 238 245 252 253 252 252 253 254 256 255 257 262 267 269 272 275 279 284 285 287 291 294 296 297 296 295 295 295 294
217 215 214 213 218 224 224 225 226 228 228 228 231 232 236 242 246 248 250 250 251 252 254 257 259 260 261 266 269 273 276 277 283 284 285 290 294 296 296 295 295 295 296 295
218 218 216 212 213 221 224 224 225 225 229 228 231 233 237 241 242 246 248 248 250 251 253 256 259 260 260 265 269 271 275 279 282 284 287 289 294 296 295 293 292 292 292 290
219 219 216 214 214 220 225 226 226 225 228 230 232 235 239 241 243 248 249 249 250 249 251 255 258 260 261 265 269 272 275 278 281 284 287 287 290 293 292 291 290 290 289 288
222 222 220 217 218 222 224 226 228 228 230 231 233 237 238 241 243 246 248 248 248 249 251 254 257 258 261 264 268 272 275 277 281 283 286 287 288 290 291 288 286 287 288 287
220 222 224 222 222 222 224 228 234 233 233 235 237 238 241 241 243 245 246 246 247 248 251 254 254 256 259 263 267 271 274 277 280 284 286 287 288 288 289 288 285 285 286 287
218 220 221 222 224 225 225 227 232 235 235 236 237 238 240 241 242 245 246 246 247 248 250 252 254 256 259 261 265 270 274 277 279 283 288 290 288 288 288 288 287 287 288 288
219 221 222 224 228 231 231 231 233 236 238 240 238 239 241 243 244 245 246 247 247 248 249 251 253 256 258 260 264 268 272 276 279 282 286 288 287 288 289 288 287 287 288 288
218 222 223 225 227 231 233 234 236 239 238 239 240 241 242 242 243 245 245 246 247 248 249 251 253 255 257 259 261 265 269 275 280 282 284 287 288 287 287 287 286 287 287 289